MIDAS 5 DEB, 19981

Orbit data source: Space-Track

MIDAS 5 DEB, 19981 is space debris in LEO originally from a launch on Fri, 26 Oct 1962 UTC launched from the Air Force Western Test Range (AFWTR). Debris objects in space refer to the collection of defunct objects orbiting the Earth. Examples of debris include non-operational satellites, rocket bodies, and fragments generated from explosions, collisions, or faulty payload assembly.

Loading next visibility...
MIDAS 5 DEB details
Identifier
19981, 1962-010H
Orbit
LEO
Last TLE update1 day ago
Origin
Flag of USUSAF SSD (US)
ManufacturerMIT-LL
MissionSpacecraft
Bus & MotorWESTFORD DRAG, Unknown motor
Mass~1 kg wet, ~1 kg dry
Launch date (UTC)
1962-10-26 (62 years ago)
Launch vehicleUnknown
Launch site
Air Force Western Test Range (AFWTR)
Object type
Payload
Rocket body
Debris
Shape & HBRUnknown
Radar Cross SectionMedium (>0.1 m² and <1 m²)

Expand to show TLE details & history

TLE from 1 day ago
0 MIDAS 5 DEB
1 19981U 62010H   25043.36125520  .00000003  00000-0 -26215-3 0  9998
2 19981  86.6807  26.1275 0323174 175.6676 184.7141  9.42949002259344
Epoch: 2025-02-12T08:40Z
Definitive object data (Epoch: 2025-02-12T08:40:12.449Z)
Latitude
Longitude113.4228°
Altitude3,393.132 km
Speed6.284 km/s
True Right ascension01h 44m 30s
True Declination0° 00' 00"
Sunlit
Object was in daylight at TLE epoch
Visualization TLE readout
Latitude-43.6068°
Longitude-63.61799°
Altitude2,898.053 km
Speed6.626 km/s
Apparent Right ascension11h 20m 39s
Apparent Declination-53° 33' 50"
Sunlit
Object is in daylight
Visualization observer readout
Local Sidereal Time19:22:20
Azimuth230.374° WSW
Elevation-48.32°
Doppler factor1
Orbital elements
Apogee altitude3,389.377 km
Perigee altitude2,777.819 km
Semi-major axis9,461.735 km
Eccentricity0.0323174
Inclination86.6807°
RAAN26.1275°
Arg. of periapsis175.6676°
True anomaly184.42155°
Mean anomaly184.7141°
Eccentric anomaly184.56667°
Mean motion2.35823 °/min
BSTAR-0.00026215
Orbital period152.66 mins
Loading maneuver chart data...
Loading historical data...
Loading historical data...
Loading historical data...
Loading historical data...
Loading historical data...
Loading historical data...
Loading historical data...

MIDAS 5 DEB Visibility forecast

Observer location: undefined°, undefined

Span
Click to sort rows by Start time (UTC) header in descending order
Start Az.
Max El. time (UTC)
Max El. Az.
Max El.
End time (UTC)
End Az.
21 mins2025-02-13 20:28:55.567Z104.826° ESE2025-02-13 20:39:55.567Z63.37° ENE20.91°2025-02-13 20:49:55.567Z23.428° NE
33 mins2025-02-13 22:52:55.567Z173.903° S2025-02-13 23:09:55.567Z71.438° E44.89°2025-02-13 23:25:55.567Z3.617° NNE
25 mins2025-02-14 01:32:55.567Z245.489° WSW2025-02-14 01:44:55.567Z293.909° NW24.368°2025-02-14 01:57:55.567Z347.816° N
5 mins2025-02-14 07:21:55.567Z39.776° NE2025-02-14 07:23:55.567Z47.972° ENE10.806°2025-02-14 07:26:55.567Z60.321° ENE
27 mins2025-02-14 09:48:55.567Z3.634° NNE2025-02-14 10:02:55.567Z86.452° E40.841°2025-02-14 10:15:55.567Z158.805° S
24 mins2025-02-14 12:22:55.567Z343.695° N2025-02-14 12:33:55.567Z291.149° WNW31.13°2025-02-14 12:46:55.567Z226.778° WSW
|